{"data":{"norad_id":45374,"epoch":"2026-09-19T19:47:29.265792Z","epoch_age_seconds":69482,"freshness":"FRESH","line1":"1 45374U 20019Q   26262.82464428  .00041588  00000+0  87933-3 0  9999","line2":"2 45374  53.1540 335.1698 0003157  34.2785 325.8425 15.44764270359593","mean_motion":15.4476427,"eccentricity":0.0003157,"inclination_deg":53.154,"raan_deg":335.1698,"arg_perigee_deg":34.2785,"mean_anomaly_deg":325.8425,"bstar":0.00087933,"rev_number":35959,"period_min":93.218106345766,"perigee_km":429.92082356733,"apogee_km":434.22078877615,"semimajor_km":6810.2078061717,"source":"CELESTRAK","updated_at":"2026-09-20T09:00:38.230931Z"}}